Torna al catalogo

COSMOS 1231

AttivoMilitareLEO
NORAD 12110·PAYLOAD·🇷🇺 Russia

Lanciato Dec 23, 1980 da Plesetsk Cosmodrome

Loading…

Prossimi Passaggi (prossime 24 ore)

TLE

AggiornatoSource: Space-Track

Epoca: Sep 14, 2026, 14:52 UTC

1 12110U 80102D   26257.61999167 -.00000029  00000-0 -71210-4 0  9994
2 12110  73.9917 228.9616 0038046 282.0105 198.0871 12.57139113 98369

Traccia COSMOS 1231 in tempo reale con AllMySat

Download on the App Store